Home   Weather   Chichester   Past weeks

Flag for United Kingdom Past Weather in Chichester, England, United Kingdom — Yesterday and Last 2 Weeks

Now
41 °F

Quite cool.


Feels Like: 36 °F
Forecast: N/A
Wind: 7 mph from East

Location: Thorney Island

Current Time: Jan 16, 2017 at 5:43:00 pm

Latest Report: Jan 16, 2017 at 4:00 pm


Visibility: 9 mi

Pressure: 30.36 "Hg

Humidity: 95%

Dew Point: 39 °F

Location of ChichesterLocation

Past Weather in Chichester — Graph

°F

Chichester Temperature Yesterday

Maximum temperature yesterday: 48 °F (at 7:00 pm)
Minimum temperature yesterday: 36 °F (at 12:00 am)
Average temperature yesterday: 43 °F

High & Low Weather Summary for the Past Weeks

 TemperatureHumidityPressure
High52 °F (Jan 11, 12:00 pm)100% (Jan 7, 9:00 am)30.64 "Hg (Jan 7, 9:00 am)
Low28 °F (Jan 5, 10:00 pm)62% (Jan 11, 5:00 pm)29.26 "Hg (Jan 12, 5:00 pm)
Average42 °F89%30.22 "Hg
* Reported Jan 1 4:00 pm — Jan 16 4:00 pm, Chichester, Weather by CustomWeather, © 2017

Note: Actual official high and low records may vary slightly from our data, if they occured in-between our weather recording intervals... More about our weather records

Advertising

Chichester Weather History for the Previous 24 Hours

Scroll right to see more
 ConditionsComfort  
Time TempWeatherWind HumidityBarometerVisibility
4:00 pm
Mon, Jan 16
41 °FQuite cool.7 mph95%30.36 "Hg9 mi
3:00 pm41 °FQuite cool.6 mph96%30.34 "Hg8 mi
2:00 pm41 °FRain showers. Cloudy.5 mph97%30.34 "Hg2 mi
1:00 pm41 °FQuite cool.6 mph98%30.34 "Hg4 mi
12:00 pm41 °FLight rain. Cloudy.7 mph97%30.34 "Hg2 mi
11:00 am41 °FLight rain. Cloudy.6 mph98%30.35 "Hg3 mi
10:00 am41 °FRain. Cloudy.5 mph98%30.34 "Hg5 mi
9:00 am41 °FLight rain. Cloudy.6 mph99%30.33 "Hg5 mi
8:00 am41 °FRain showers. Cloudy.8 mph98%30.31 "Hg2 mi
7:00 am43 °FLight rain. Overcast.7 mph99%30.30 "Hg3 mi
6:00 am44 °FRain showers. Overcast.9 mph99%30.28 "Hg2 mi
5:00 am47 °FCool.2 mph99%30.26 "Hg1 mi
4:00 am47 °FLots of rain. Overcast.3 mph99%30.26 "Hg1 mi
2:00 am47 °FCool.6 mph95%30.25 "Hg7 mi
1:00 am48 °FCool.6 mph94%30.24 "Hg13 mi
11:00 pm
Sun, Jan 15
48 °FCool.7 mph97%30.24 "Hg22 mi
10:00 pm48 °FCool.7 mph96%30.23 "Hg31 mi
9:00 pm48 °FCool.6 mph96%30.22 "Hg31 mi
8:00 pm48 °FCool.7 mph97%30.20 "Hg28 mi
7:00 pm48 °FCool.8 mph97%30.19 "Hg22 mi
6:00 pm48 °FCool.10 mph97%30.18 "Hg7 mi
5:00 pm47 °FRain showers. Overcast.12 mph97%30.17 "Hg7 mi
Weather by CustomWeather, © 2017

See weather overviewHow to use our weather pages